Year,Month,Day,Hour,Minute,Value (Times are PST for temperature in C)
2018,07,10,00,00,15.80
2018,07,10,00,01,15.80
2018,07,10,00,02,15.80
2018,07,10,00,03,15.80
2018,07,10,00,04,15.80
2018,07,10,00,05,15.80
2018,07,10,00,06,15.80
2018,07,10,00,07,15.80
2018,07,10,00,30,15.60
2018,07,10,01,30,15.00
2018,07,10,01,31,15.00
2018,07,10,01,32,15.00
2018,07,10,01,33,15.00
2018,07,10,01,34,15.00
2018,07,10,01,35,15.00
2018,07,10,01,36,15.00
2018,07,10,01,37,15.00
2018,07,10,01,38,15.00
2018,07,10,01,39,15.00
2018,07,10,01,40,15.00
2018,07,10,01,41,15.00
2018,07,10,01,42,15.00
2018,07,10,01,43,15.00
2018,07,10,01,44,15.00
2018,07,10,01,45,15.00
2018,07,10,01,46,15.00
2018,07,10,01,47,15.00
2018,07,10,01,48,15.00
2018,07,10,01,49,15.00
2018,07,10,01,50,15.00
2018,07,10,01,51,15.00
2018,07,10,01,52,15.00
2018,07,10,01,53,15.00
2018,07,10,01,54,15.00
2018,07,10,01,55,15.00
2018,07,10,01,56,15.00
2018,07,10,01,57,15.00
2018,07,10,01,58,15.00
2018,07,10,01,59,15.00
2018,07,10,02,00,15.00
2018,07,10,02,01,15.00
2018,07,10,02,02,15.00
2018,07,10,02,03,15.00
2018,07,10,02,04,15.00
2018,07,10,02,05,15.00
2018,07,10,02,06,15.00
2018,07,10,02,07,15.00
2018,07,10,02,08,15.00
2018,07,10,02,09,15.00
2018,07,10,02,10,15.00
2018,07,10,02,11,15.00
2018,07,10,02,12,15.00
2018,07,10,02,13,15.00
2018,07,10,02,14,15.00
2018,07,10,02,15,15.00
2018,07,10,02,16,15.00
2018,07,10,02,17,15.00
2018,07,10,02,18,15.00
2018,07,10,02,19,15.00
2018,07,10,02,20,15.00
2018,07,10,02,21,15.00
2018,07,10,02,22,15.00
2018,07,10,02,23,15.00
2018,07,10,02,24,15.00
2018,07,10,02,25,15.00
2018,07,10,02,26,15.00
2018,07,10,02,27,15.00
2018,07,10,02,28,15.00
2018,07,10,02,29,15.00
2018,07,10,02,30,15.00
2018,07,10,02,31,15.00
2018,07,10,02,32,14.90
2018,07,10,02,33,14.90
2018,07,10,02,34,14.90
2018,07,10,02,35,14.90
2018,07,10,02,36,14.90
2018,07,10,02,37,14.90
2018,07,10,02,38,14.90
2018,07,10,02,39,14.90
2018,07,10,02,40,14.90
2018,07,10,02,41,14.90
2018,07,10,02,42,14.90
2018,07,10,02,43,14.90
2018,07,10,02,44,14.90
2018,07,10,02,45,14.90
2018,07,10,02,46,14.90
2018,07,10,02,48,14.80
2018,07,10,02,49,14.80
2018,07,10,03,29,14.70
2018,07,10,03,31,14.70
2018,07,10,03,32,14.70
2018,07,10,03,33,14.70
2018,07,10,03,34,14.70
2018,07,10,03,35,14.70
2018,07,10,03,36,14.70
2018,07,10,03,37,14.70
2018,07,10,03,38,14.70
2018,07,10,03,39,14.70
2018,07,10,03,40,14.70
2018,07,10,03,41,14.70
2018,07,10,03,42,14.70
2018,07,10,03,43,14.70
2018,07,10,03,44,14.70
2018,07,10,03,45,14.70
2018,07,10,03,46,14.70
2018,07,10,03,47,14.70
2018,07,10,03,48,14.70
2018,07,10,03,49,14.70
2018,07,10,03,50,14.70
2018,07,10,03,51,14.70
2018,07,10,03,52,14.70
2018,07,10,03,53,14.70
2018,07,10,03,54,14.70
2018,07,10,03,55,14.70
2018,07,10,03,56,14.80
2018,07,10,03,57,14.80
2018,07,10,03,58,14.80
2018,07,10,03,59,14.80
2018,07,10,04,30,15.00
2018,07,10,04,31,15.00
2018,07,10,04,32,15.00
2018,07,10,04,33,15.00
2018,07,10,04,34,15.00
2018,07,10,04,35,15.00
2018,07,10,04,36,15.00
2018,07,10,04,37,15.00
2018,07,10,04,38,15.00
2018,07,10,04,39,15.00
2018,07,10,04,40,15.00
2018,07,10,04,41,15.00
2018,07,10,04,42,15.00
2018,07,10,04,43,15.00
2018,07,10,04,44,15.00
2018,07,10,04,45,15.00
2018,07,10,04,46,15.00
2018,07,10,04,47,15.00
2018,07,10,04,48,15.00
2018,07,10,04,49,14.90
2018,07,10,04,50,14.90
2018,07,10,04,51,14.90
2018,07,10,04,52,14.90
2018,07,10,04,53,14.90
2018,07,10,04,54,14.90
2018,07,10,04,55,14.90
2018,07,10,04,56,14.90
2018,07,10,04,57,14.90
2018,07,10,04,58,14.90
2018,07,10,04,59,14.90
2018,07,10,05,00,14.90
2018,07,10,05,01,14.90
2018,07,10,05,02,14.90
2018,07,10,05,03,14.90
2018,07,10,05,04,14.90
2018,07,10,05,05,14.90
2018,07,10,05,06,14.90
2018,07,10,05,07,14.90
2018,07,10,05,08,14.90
2018,07,10,05,09,14.90
2018,07,10,05,30,14.50
2018,07,10,05,31,14.50
2018,07,10,05,32,14.50
2018,07,10,05,33,14.50
2018,07,10,05,34,14.40
2018,07,10,05,35,14.40
2018,07,10,05,36,14.40
2018,07,10,05,37,14.40
2018,07,10,05,38,14.40
2018,07,10,05,39,14.40
2018,07,10,05,40,14.40
2018,07,10,05,41,14.40
2018,07,10,05,42,14.40
2018,07,10,05,43,14.40
2018,07,10,05,44,14.30
2018,07,10,05,45,14.30
2018,07,10,05,46,14.30
2018,07,10,05,47,14.30
2018,07,10,05,48,14.30
2018,07,10,05,49,14.30
2018,07,10,05,50,14.30
2018,07,10,05,51,14.30
2018,07,10,05,52,14.30
2018,07,10,05,53,14.30
2018,07,10,05,54,14.30
2018,07,10,05,55,14.30
2018,07,10,05,56,14.30
2018,07,10,05,57,14.30
2018,07,10,05,58,14.30
2018,07,10,05,59,14.30
2018,07,10,06,00,14.30
2018,07,10,06,01,14.30
2018,07,10,06,02,14.30
2018,07,10,06,03,14.30
2018,07,10,06,04,14.30
2018,07,10,06,30,14.40
2018,07,10,07,29,14.40
2018,07,10,07,30,14.40
2018,07,10,07,31,14.40
2018,07,10,07,32,14.40
2018,07,10,07,33,14.40
2018,07,10,07,34,14.40
2018,07,10,07,35,14.40
2018,07,10,07,36,14.40
2018,07,10,07,37,14.40
2018,07,10,07,38,14.40
2018,07,10,07,39,14.50
2018,07,10,07,40,14.50
2018,07,10,07,41,14.50
2018,07,10,07,42,14.50
2018,07,10,07,43,14.50
2018,07,10,07,44,14.50
2018,07,10,07,45,14.50
2018,07,10,07,46,14.60
2018,07,10,07,47,14.60
2018,07,10,07,48,14.60
2018,07,10,07,49,14.60
2018,07,10,07,50,14.70
2018,07,10,07,51,14.70
2018,07,10,07,52,14.70
2018,07,10,07,53,14.80
2018,07,10,07,54,14.80
2018,07,10,07,55,14.80
2018,07,10,07,56,14.80
2018,07,10,07,57,14.90
2018,07,10,07,58,14.90
2018,07,10,07,59,15.00
2018,07,10,08,00,15.00
2018,07,10,08,01,15.10
2018,07,10,08,02,15.10
2018,07,10,08,03,15.20
2018,07,10,08,04,15.30
2018,07,10,08,29,16.60
2018,07,10,08,30,16.70
2018,07,10,08,31,16.70
2018,07,10,08,32,16.70
2018,07,10,08,33,16.90
2018,07,10,08,34,16.90
2018,07,10,08,35,17.00
2018,07,10,08,36,17.10
2018,07,10,08,37,17.20
2018,07,10,08,38,17.20
2018,07,10,08,39,17.20
2018,07,10,08,40,17.20
2018,07,10,08,41,17.20
2018,07,10,08,42,17.30
2018,07,10,08,43,17.30
2018,07,10,08,44,17.30
2018,07,10,08,45,17.30
2018,07,10,08,46,17.30
2018,07,10,08,47,17.30
2018,07,10,08,48,17.30
2018,07,10,08,49,17.40
2018,07,10,08,50,17.40
2018,07,10,08,51,17.40
2018,07,10,08,52,17.40
2018,07,10,08,53,17.40
2018,07,10,08,54,17.40
2018,07,10,08,55,17.40
2018,07,10,08,56,17.50
2018,07,10,08,57,17.50
2018,07,10,08,58,17.50
2018,07,10,08,59,17.50
2018,07,10,09,00,17.50
2018,07,10,09,01,17.60
2018,07,10,09,02,17.60
2018,07,10,09,03,17.70
2018,07,10,09,04,17.80
2018,07,10,09,29,18.60
2018,07,10,09,30,18.70
2018,07,10,09,31,18.70
2018,07,10,09,32,18.80
2018,07,10,09,33,18.80
2018,07,10,09,34,18.90
2018,07,10,10,29,20.20
2018,07,10,10,30,20.20
2018,07,10,10,31,20.30
2018,07,10,10,32,20.30
2018,07,10,10,33,20.30
2018,07,10,10,34,20.40
2018,07,10,11,29,21.30
2018,07,10,12,29,22.70
2018,07,10,12,30,22.70
2018,07,10,13,29,23.60
2018,07,10,13,30,23.70
2018,07,10,13,31,23.70
2018,07,10,13,32,23.80
2018,07,10,13,33,23.90
2018,07,10,13,34,23.90
2018,07,10,13,35,24.10
2018,07,10,13,36,24.10
2018,07,10,13,37,24.10
2018,07,10,13,38,24.10
2018,07,10,13,39,24.10
2018,07,10,13,40,24.10
2018,07,10,13,41,24.20
2018,07,10,13,42,24.30
2018,07,10,13,43,24.30
2018,07,10,13,44,24.40
2018,07,10,13,45,24.50
2018,07,10,13,46,24.50
2018,07,10,13,47,24.50
2018,07,10,13,48,24.50
2018,07,10,13,49,24.50
2018,07,10,13,50,24.50
2018,07,10,13,51,24.50
2018,07,10,13,52,24.50
2018,07,10,13,53,24.50
2018,07,10,13,54,24.50
2018,07,10,13,55,24.50
2018,07,10,13,56,24.50
2018,07,10,13,57,24.50
2018,07,10,13,58,24.40
2018,07,10,13,59,24.40
2018,07,10,14,00,24.40
2018,07,10,14,01,24.40
2018,07,10,14,02,24.40
2018,07,10,14,03,24.30
2018,07,10,14,04,24.40
2018,07,10,14,29,24.30
2018,07,10,14,30,24.20
2018,07,10,14,31,24.20
2018,07,10,14,32,24.20
2018,07,10,14,33,24.20
2018,07,10,14,34,24.20
2018,07,10,14,35,24.10
2018,07,10,14,36,24.10
2018,07,10,14,37,24.10
2018,07,10,14,38,24.10
2018,07,10,14,39,23.90
2018,07,10,15,29,19.10
2018,07,10,15,30,19.10
2018,07,10,15,31,18.90
2018,07,10,15,32,18.90
2018,07,10,15,33,18.90
2018,07,10,15,34,18.90
2018,07,10,15,35,18.90
2018,07,10,15,36,18.90
2018,07,10,15,37,18.90
2018,07,10,15,38,18.90
2018,07,10,15,39,19.10
2018,07,10,15,40,19.10
2018,07,10,15,41,19.10
2018,07,10,15,42,19.10
2018,07,10,15,43,19.10
2018,07,10,15,44,19.10
2018,07,10,15,45,19.10
2018,07,10,15,46,19.20
2018,07,10,15,47,19.20
2018,07,10,15,48,19.20
2018,07,10,15,49,19.20
2018,07,10,15,50,19.20
2018,07,10,15,51,19.20
2018,07,10,15,52,19.20
2018,07,10,15,53,19.30
2018,07,10,15,54,19.30
2018,07,10,15,55,19.30
2018,07,10,15,56,19.40
2018,07,10,15,57,19.40
2018,07,10,15,58,19.40
2018,07,10,15,59,19.50
2018,07,10,16,00,19.40
2018,07,10,16,01,19.50
2018,07,10,16,02,19.50
2018,07,10,16,03,19.40
2018,07,10,16,04,19.30
2018,07,10,16,29,19.90
2018,07,10,16,30,19.90
2018,07,10,16,31,19.90
2018,07,10,16,32,19.90
2018,07,10,16,33,19.90
2018,07,10,16,34,19.90
2018,07,10,17,29,18.20
2018,07,10,17,30,18.20
2018,07,10,17,31,18.20
2018,07,10,17,32,18.20
2018,07,10,17,33,18.20
2018,07,10,17,34,18.10
2018,07,10,18,29,18.30
2018,07,10,19,29,18.70
2018,07,10,19,30,18.70
2018,07,10,19,31,18.70
2018,07,10,19,32,18.70
2018,07,10,19,33,18.70
2018,07,10,19,34,18.70
2018,07,10,19,35,18.70
2018,07,10,19,36,18.80
2018,07,10,19,37,18.80
2018,07,10,19,38,18.80
2018,07,10,19,39,18.90
2018,07,10,19,40,18.90
2018,07,10,19,41,18.90
2018,07,10,19,42,18.90
2018,07,10,19,43,18.90
2018,07,10,19,44,18.90
2018,07,10,20,29,17.00
2018,07,10,21,29,14.30
2018,07,10,21,30,14.30
2018,07,10,21,31,14.30
2018,07,10,21,32,14.30
2018,07,10,21,33,14.30
2018,07,10,21,34,14.30
2018,07,10,21,35,14.30
2018,07,10,21,36,14.30
2018,07,10,21,37,14.30
2018,07,10,21,38,14.30
2018,07,10,21,39,14.20
2018,07,10,21,40,14.20
2018,07,10,21,41,14.20
2018,07,10,21,42,14.20
2018,07,10,21,43,14.20
2018,07,10,21,44,14.20
2018,07,10,21,45,14.20
2018,07,10,21,46,14.20
2018,07,10,21,47,14.20
2018,07,10,21,48,14.20
2018,07,10,21,49,14.20
2018,07,10,21,50,14.20
2018,07,10,21,51,14.20
2018,07,10,21,52,14.10
2018,07,10,21,53,14.10
2018,07,10,21,54,14.10
2018,07,10,21,55,14.00
2018,07,10,21,56,14.00
2018,07,10,21,57,14.00
2018,07,10,21,58,13.90
2018,07,10,21,59,13.90
2018,07,10,22,00,13.90
2018,07,10,22,01,13.90
2018,07,10,22,02,13.80
2018,07,10,22,03,13.80
2018,07,10,22,04,13.80
2018,07,10,22,29,13.80
2018,07,10,22,30,13.80
2018,07,10,22,31,13.80
2018,07,10,22,32,13.80
2018,07,10,22,33,13.80
2018,07,10,22,34,13.80
2018,07,10,22,35,13.70
2018,07,10,22,36,13.70
2018,07,10,22,37,13.70
2018,07,10,22,38,13.70
2018,07,10,22,39,13.70
2018,07,10,22,40,13.70
2018,07,10,22,41,13.70
2018,07,10,22,42,13.70
2018,07,10,22,43,13.70
2018,07,10,22,44,13.70
2018,07,10,22,45,13.70
2018,07,10,22,46,13.70
2018,07,10,22,47,13.70
2018,07,10,22,48,13.70
2018,07,10,22,49,13.70
2018,07,10,22,50,13.70
2018,07,10,22,51,13.70
2018,07,10,22,52,13.70
2018,07,10,22,53,13.70
2018,07,10,22,54,13.70
2018,07,10,22,55,13.70
2018,07,10,22,56,13.70
2018,07,10,22,57,13.70
2018,07,10,22,58,13.60
2018,07,10,22,59,13.60
2018,07,10,23,00,13.60
2018,07,10,23,01,13.60
2018,07,10,23,02,13.60
2018,07,10,23,03,13.60
2018,07,10,23,04,13.60
2018,07,10,23,29,13.60
2018,07,10,23,30,13.60
2018,07,10,23,31,13.60
2018,07,10,23,32,13.60
2018,07,10,23,33,13.60
2018,07,10,23,34,13.60
2018,07,10,23,35,13.60
2018,07,10,23,36,13.60
2018,07,10,23,37,13.60
2018,07,10,23,38,13.60
2018,07,10,23,39,13.60
2018,07,10,23,40,13.50
2018,07,10,23,41,13.50
2018,07,10,23,42,13.50
2018,07,10,23,43,13.50
2018,07,10,23,44,13.50
2018,07,10,23,45,13.50
2018,07,10,23,46,13.50
2018,07,10,23,47,13.50
2018,07,10,23,48,13.50
2018,07,10,23,49,13.50
2018,07,10,23,50,13.50
2018,07,10,23,51,13.50
2018,07,10,23,52,13.50
2018,07,10,23,53,13.50
2018,07,10,23,54,13.50
2018,07,10,23,55,13.50
2018,07,10,23,56,13.50
2018,07,10,23,57,13.50
2018,07,10,23,58,13.50
2018,07,10,23,59,13.50
